Погода в Рахмангулове

Россия / Свердловская область     56°35′24″N   58°03′07″E
темп.,
°C
ветер,
м/с
пор.,
м/с
влажн.,
%
обл.,
%
осадки,
мм/ч
давл.,
гПа
погр.,
м
8 марта, пн
пн823:00−18зюз239875 0.1 100920
02:00−20ююз231004 0.0 100920
05:00−20ююв3310040 0.0 100831
08:00−17ююв4995100 0.0 1005244
11:00−12ю61091100 0.3 1003627
14:00−8ююз71190100 0.4 1000973
17:00−5ю71289100 0.8 9991032
20:00−7зюз6148299 0.6 999498
9 марта, вт
вт923:00−9юз5138949 0.6 1001340
02:00−9юз5119169 0.0 1001293
05:00−11юз349384 0.0 100174
08:00−13вюв119869 0.0 100121
11:00−8зсз489285 1.6 1004549
14:00−6з6882100 0.1 10081014
17:00−7зюз4684100 0.2 1009869
20:00−13зюз339397 0.0 101026
10 марта, ср
ср1023:00−16юз119694 0.0 101120
02:00−17всв1199100 0.0 101020
05:00−16св2296100 0.0 100822
08:00−15ссв3595100 0.0 1006124
11:00−11ссв61094100 0.7 1004488
14:00−10ссв71193100 1.9 1003780
17:00−11ссв71094100 3.8 1003810
20:00−14с61195100 1.5 1006701
11 марта, чт
чт1123:00−15с61095100 2.5 1008683
02:00−17с61096100 0.8 1009628
05:00−20ссз6996100 1.2 1012408
08:00−23сз4795100 0.0 1014249
11:00−21сз479387 0.0 1015322
14:00−16сз468677 0.0 1016579
17:00−14зсз578887 0.1 1017714
20:00−17з4993100 0.1 1019438
12 марта, пт
пт1223:00−17зюз4995100 0.2 1020323
02:00−16зюз51094100 0.2 1021345
05:00−17зюз41193100 0.3 1022263
08:00−18зюз4996100 0.0 1025195
11:00−13з589299 0.1 1026428
14:00−9з588233 0.0 1026683
17:00−8зсз598017 0.0 1026816
20:00−13з34905 0.0 102855